GW0819 Weather Reports


Display with metric or nautical units.
time (UTC)temp
F
wind
direction
speed
MPH
gust
MPH
rain 1hr
in
rain 24hr
in
rain mn
in
humidity
%
barometer
mb
20260504060120 58 223 13.0 18.0 0.00 0.00 0.00 63 1010.1
20260504050548 58 205 11.0 12.0 0.00 0.00 0.00 60 1010.4
20260504045542 59 193 9.0 13.0 0.00 0.00 0.00 58 1010.1
20260504045037 59 201 10.0 12.0 0.00 0.00 0.00 57 1010.1
20260504044535 60 203 12.0 13.0 0.00 0.00 0.00 57 1010.0
20260504044032 60 197 10.0 14.0 0.00 0.00 0.00 56 1010.4
20260504043529 60 205 11.0 13.0 0.00 0.00 0.00 55 1010.4
20260504043026 61 197 12.0 12.0 0.00 0.00 0.00 54 1010.6
20260504042523 61 199 10.0 15.0 0.00 0.00 0.00 53 1010.3
20260504042020 61 196 11.0 13.0 0.00 0.00 0.00 53 1010.5
20260504041516 62 201 12.0 16.0 0.00 0.00 0.00 51 1010.5
20260504041012 62 186 12.0 18.0 0.00 0.00 0.00 51 1010.4
20260504040510 63 179 12.0 17.0 0.00 0.00 0.00 50 1010.5
20260504040007 62 197 10.0 13.0 0.00 0.00 0.00 51 1010.3
20260504035504 62 193 10.0 12.0 0.00 0.00 0.00 51 1010.4
20260504034959 62 187 9.0 11.0 0.00 0.00 0.00 50 1010.4
20260504034457 62 198 9.0 12.0 0.00 0.00 0.00 49 1010.4
20260504033954 62 199 9.0 12.0 0.00 0.00 0.00 48 1010.3
20260504033452 63 199 8.0 12.0 0.00 0.00 0.00 47 1010.3
20260504032949 63 193 8.0 13.0 0.00 0.00 0.00 47 1010.3
20260504032446 63 198 7.0 11.0 0.00 0.00 0.00 46 1010.4
20260504031942 64 199 10.0 13.0 0.00 0.00 0.00 46 1010.1
20260504031439 64 200 12.0 13.0 0.00 0.00 0.00 45 1010.1
20260504030936 64 206 10.0 15.0 0.00 0.00 0.00 44 1010.1
20260504030433 65 203 12.0 15.0 0.00 0.00 0.00 44 1010.0
20260504025929 65 204 13.0 15.0 0.00 0.00 0.00 43 1010.1
20260504025426 65 200 10.0 15.0 0.00 0.00 0.00 42 1010.1
20260504024923 65 206 10.0 12.0 0.00 0.00 0.00 42 1010.4
20260504024420 65 205 13.0 14.0 0.00 0.00 0.00 41 1010.1
20260504023917 65 208 13.0 16.0 0.00 0.00 0.00 41 1010.1
20260504023414 66 205 9.0 16.0 0.00 0.00 0.00 41 1009.7
20260504022909 66 210 15.0 20.0 0.00 0.00 0.00 40 1009.9
20260504022406 66 217 14.0 18.0 0.00 0.00 0.00 40 1010.0
20260504021903 66 208 14.0 21.0 0.00 0.00 0.00 39 1009.7
20260504021400 66 210 12.0 17.0 0.00 0.00 0.00 39 1009.8
20260504020857 67 213 14.0 19.0 0.00 0.00 0.00 38 1009.6
20260504020353 67 213 15.0 16.0 0.00 0.00 0.00 37 1009.6
20260504015849 67 220 13.0 18.0 0.00 0.00 0.00 37 1009.7
20260504015346 67 221 14.0 16.0 0.00 0.00 0.00 37 1009.5
20260504014842 68 223 14.0 17.0 0.00 0.00 0.00 36 1009.4
20260504014338 68 223 16.0 18.0 0.00 0.00 0.00 35 1009.6
20260504013836 68 216 15.0 16.0 0.00 0.00 0.00 35 1009.1
20260504013334 68 219 16.0 17.0 0.00 0.00 0.00 34 1009.5
20260504012830 69 229 12.0 15.0 0.00 0.00 0.00 33 1009.8
20260504012328 69 228 13.0 17.0 0.00 0.00 0.00 33 1009.6
20260504011825 70 225 11.0 20.0 0.00 0.00 0.00 32 1009.6
20260504011321 70 217 13.0 20.0 0.00 0.00 0.00 32 1009.6
20260504010817 70 229 20.0 25.0 0.00 0.00 0.00 32 1009.6
20260504010313 71 222 16.0 21.0 0.00 0.00 0.00 31 1009.5
20260504005810 71 230 20.0 26.0 0.00 0.00 0.00 31 1009.6
20260504005307 71 227 18.0 22.0 0.00 0.00 0.00 31 1009.7
20260504004805 71 223 15.0 18.0 0.00 0.00 0.00 31 1009.4
20260504004302 71 213 12.0 17.0 0.00 0.00 0.00 31 1009.8
20260504003758 71 205 15.0 20.0 0.00 0.00 0.00 31 1009.8
20260504003255 72 231 17.0 18.0 0.00 0.00 0.00 30 1009.7
20260504002752 72 229 18.0 26.0 0.00 0.00 0.00 29 1009.8
20260504002249 72 247 16.0 23.0 0.00 0.00 0.00 29 1010.0
20260504001746 72 238 15.0 23.0 0.00 0.00 0.00 29 1009.9
20260504001243 72 230 15.0 21.0 0.00 0.00 0.00 29 1010.1
20260504000740 72 228 13.0 21.0 0.00 0.00 0.00 29 1009.9
20260504000237 73 228 21.0 24.0 0.00 0.00 0.00 27 1010.3
20260503235735 72 234 18.0 26.0 0.00 0.00 0.00 28 1010.1
20260503235232 72 245 17.0 19.0 0.00 0.00 0.00 26 1010.4
20260503234730 72 223 20.0 22.0 0.00 0.00 0.00 28 1010.3
20260503234228 72 228 26.0 28.0 0.00 0.00 0.00 29 1010.3
20260503233725 73 244 24.0 27.0 0.00 0.00 0.00 28 1010.4
20260503233220 72 243 16.0 27.0 0.00 0.00 0.00 29 1010.5
20260503232717 73 243 21.0 27.0 0.00 0.00 0.00 28 1010.7
20260503232214 73 240 27.0 28.0 0.00 0.00 0.00 28 1010.4
20260503231713 71 241 25.0 30.0 0.00 0.00 0.00 29 1010.5
20260503231209 71 239 30.0 32.0 0.00 0.00 0.00 29 1010.4
20260503230705 71 243 25.0 32.0 0.00 0.00 0.00 28 1010.5
20260503230203 72 231 17.0 26.0 0.00 0.00 0.00 29 1010.3
20260503225700 72 244 14.0 25.0 0.00 0.00 0.00 28 1010.5
20260503225159 71 251 24.0 31.0 0.00 0.00 0.00 29 1010.8
20260503224657 71 223 23.0 28.0 0.00 0.00 0.00 29 1010.7
20260503224155 72 233 22.0 29.0 0.00 0.00 0.00 30 1010.8
20260503223653 72 231 23.0 28.0 0.00 0.00 0.00 30 1010.9
20260503223149 72 228 25.0 30.0 0.00 0.00 0.00 29 1011.1
20260503222646 71 238 22.0 26.0 0.00 0.00 0.00 28 1010.9
20260503222144 72 249 21.0 35.0 0.00 0.00 0.00 28 1011.4
20260503221642 72 223 27.0 32.0 0.00 0.00 0.00 31 1011.2
20260503221139 71 200 20.0 26.0 0.00 0.00 0.00 32 1011.4
20260503220636 72 252 19.0 23.0 0.00 0.00 0.00 32 1011.1
20260503220132 72 244 18.0 30.0 0.00 0.00 0.00 31 1011.5
20260503215630 72 243 24.0 33.0 0.00 0.00 0.00 30 1011.4
20260503215126 71 208 20.0 28.0 0.00 0.00 0.00 31 1011.3
20260503214625 71 219 23.0 27.0 0.00 0.00 0.00 30 1011.8
20260503214120 71 218 18.0 29.0 0.00 0.00 0.00 30 1012.0
20260503213615 71 239 20.0 37.0 0.00 0.00 0.00 31 1011.8
20260503213110 72 236 26.0 27.0 0.00 0.00 0.00 29 1011.8
20260503212608 72 226 28.0 35.0 0.00 0.00 0.00 29 1012.2
20260503212105 71 214 19.0 28.0 0.00 0.00 0.00 31 1012.1
20260503211603 71 229 24.0 35.0 0.00 0.00 0.00 32 1012.5
20260503211058 72 228 24.0 31.0 0.00 0.00 0.00 31 1012.4
20260503210555 71 234 23.0 31.0 0.00 0.00 0.00 30 1012.9
20260503210050 71 238 30.0 32.0 0.00 0.00 0.00 29 1012.9
20260503205547 71 243 27.0 34.0 0.00 0.00 0.00 27 1012.6
20260503205043 71 243 24.0 26.0 0.00 0.00 0.00 26 1013.0
20260503204541 71 220 22.0 29.0 0.00 0.00 0.00 30 1013.0
20260503204038 71 247 24.0 33.0 0.00 0.00 0.00 30 1013.1
20260503203535 72 229 19.0 31.0 0.00 0.00 0.00 27 1013.1
20260503203032 71 232 29.0 34.0 0.00 0.00 0.00 29 1013.4
20260503202530 73 233 23.0 31.0 0.00 0.00 0.00 25 1013.4
20260503202028 72 219 17.0 30.0 0.00 0.00 0.00 26 1013.7
20260503201526 71 238 27.0 39.0 0.00 0.00 0.00 28 1013.9
20260503201022 73 217 13.0 25.0 0.00 0.00 0.00 27 1013.6
20260503200519 71 236 19.0 22.0 0.00 0.00 0.00 30 1013.6
20260503200016 72 234 18.0 32.0 0.00 0.00 0.00 29 1014.0
20260503195513 72 238 26.0 35.0 0.00 0.00 0.00 29 1014.0
20260503195009 71 240 22.0 28.0 0.00 0.00 0.00 27 1014.1
20260503194507 72 208 19.0 24.0 0.00 0.00 0.00 29 1014.0
20260503194006 71 206 20.0 23.0 0.00 0.00 0.00 29 1014.2
20260503193503 70 250 21.0 27.0 0.00 0.00 0.00 28 1014.5
20260503192958 69 204 14.0 20.0 0.00 0.00 0.00 31 1014.2
20260503192455 70 230 20.0 33.0 0.00 0.00 0.00 28 1014.3
20260503191950 69 215 15.0 22.0 0.00 0.00 0.00 32 1014.6
20260503191448 70 215 21.0 25.0 0.00 0.00 0.00 26 1014.6
20260503190944 69 217 18.0 29.0 0.00 0.00 0.00 32 1014.8
20260503190442 68 215 11.0 28.0 0.00 0.00 0.00 30 1015.0
20260503185939 69 177 14.0 31.0 0.00 0.00 0.00 32 1014.9
20260503185435 68 222 19.0 24.0 0.00 0.00 0.00 32 1015.0
20260503184934 68 208 13.0 26.0 0.00 0.00 0.00 34 1015.3
20260503184431 67 199 17.0 26.0 0.00 0.00 0.00 34 1015.3
20260503183927 68 211 13.0 23.0 0.00 0.00 0.00 34 1015.4
20260503183424 69 197 17.0 23.0 0.00 0.00 0.00 34 1015.5
20260503182921 68 225 17.0 23.0 0.00 0.00 0.00 37 1015.5
20260503182420 68 210 20.0 21.0 0.00 0.00 0.00 36 1015.7
20260503181917 67 214 20.0 23.0 0.00 0.00 0.00 37 1015.6
20260503181414 68 209 20.0 26.0 0.00 0.00 0.00 38 1015.9
20260503180910 67 229 20.0 24.0 0.00 0.00 0.00 38 1015.8
20260503180408 67 235 15.0 25.0 0.00 0.00 0.00 39 1016.0
20260503175904 67 227 20.0 24.0 0.00 0.00 0.00 38 1016.2
20260503175403 67 226 24.0 31.0 0.00 0.00 0.00 39 1016.2
20260503174858 66 215 18.0 26.0 0.00 0.00 0.00 41 1016.3
20260503174356 66 226 15.0 24.0 0.00 0.00 0.00 40 1016.3
20260503173851 66 200 18.0 23.0 0.00 0.00 0.00 42 1016.6
20260503173348 65 224 18.0 25.0 0.00 0.00 0.00 43 1016.5
20260503172844 66 223 16.0 24.0 0.00 0.00 0.00 40 1016.7
20260503172342 66 227 18.0 20.0 0.00 0.00 0.00 41 1016.8
20260503171838 66 235 26.0 30.0 0.00 0.00 0.00 42 1016.6
20260503171335 66 208 24.0 27.0 0.00 0.00 0.00 40 1016.4
20260503170832 65 238 15.0 25.0 0.00 0.00 0.00 43 1016.7
20260503170329 66 228 24.0 27.0 0.00 0.00 0.00 42 1017.0
20260503150721 59 227 19.0 27.0 0.00 0.00 0.00 61 1017.7
20260503150217 59 217 19.0 28.0 0.00 0.00 0.00 61 1018.1
20260503140142 53 230 20.0 22.0 0.00 0.00 0.00 74 1018.2
20260503131111 46 229 10.0 11.0 0.00 0.00 0.00 90 1018.2
20260503130609 45 240 7.0 8.0 0.00 0.00 0.00 90 1018.0
20260503130106 45 217 7.0 9.0 0.00 0.00 0.00 91 1018.1
20260503110459 43 244 5.0 8.0 0.00 0.00 0.00 88 1017.4
20260503090350 45 268 6.0 10.0 0.00 0.00 0.00 85 1017.7
20260503081317 46 249 7.0 9.0 0.00 0.00 0.00 83 1018.1
20260503080814 46 256 7.0 10.0 0.00 0.00 0.00 83 1017.9
20260503080311 46 248 7.0 10.0 0.00 0.00 0.00 83 1018.1
20260503072747 45 253 5.0 6.0 0.00 0.00 0.00 85 1018.2
20260503072244 45 246 6.0 7.0 0.00 0.00 0.00 84 1018.5
20260503071740 46 251 7.0 9.0 0.00 0.00 0.00 84 1018.4
20260503071238 46 248 8.0 10.0 0.00 0.00 0.00 83 1018.4
20260503070734 47 253 7.0 10.0 0.00 0.00 0.00 82 1018.4
20260503070232 46 258 8.0 9.0 0.00 0.00 0.00 83 1018.5